This is the latest recevied weather packets stored in our database for station/object KM4CNW. If no packets are shown the sender has not sent any weather packets the latest 10 day(s).
| Time | Temp. | Humidity | Pressure | Rain* | Wind** | Luminosity | Snow |
|---|---|---|---|---|---|---|---|
| 1777639108 | 11.67° C | 58% | 1009.9 hPa | 0 mm | - | 76 W/m² | - |
| 1777638806 | 11.11° C | 62% | 1009.8 hPa | 0 mm | - | 64 W/m² | - |
| 1777638506 | 11.11° C | 64% | 1009.9 hPa | 0 mm | - | 54 W/m² | - |
| 1777638204 | 11.11° C | 62% | 1010.1 hPa | 0 mm | - | 27 W/m² | - |
| 1777637899 | 11.11° C | 60% | 1010 hPa | 0 mm | - | 29 W/m² | - |
| 1777637596 | 11.11° C | 60% | 1010 hPa | 0 mm | - | 22 W/m² | - |
| 1777637293 | 11.11° C | 61% | 1010.1 hPa | 0 mm | - | 25 W/m² | - |
| 1777636990 | 11.11° C | 61% | 1010.2 hPa | 0 mm | - | 26 W/m² | - |
| 1777636685 | 11.11° C | 61% | 1010.2 hPa | 0 mm | - | 32 W/m² | - |
| 1777636382 | 11.11° C | 59% | 1010.1 hPa | 0 mm | - | 21 W/m² | - |
| 1777636082 | 11.11° C | 63% | 1010.3 hPa | 0 mm | - | 24 W/m² | - |
| 1777635475 | 11.11° C | 65% | 1010.2 hPa | 0 mm | - | 22 W/m² | - |
| 1777635172 | 10.56° C | 66% | 1010 hPa | 0 mm | - | 31 W/m² | - |
| 1777634868 | 10.56° C | 67% | 1010.3 hPa | 0 mm | - | 31 W/m² | - |
| 1777634565 | 10.56° C | 69% | 1009.9 hPa | 0 mm | - | 32 W/m² | - |
| 1777634262 | 10.56° C | 69% | 1009.8 hPa | 0 mm | - | 20 W/m² | - |
| 1777633958 | 10.56° C | 67% | 1009.7 hPa | 0 mm | - | 20 W/m² | - |
| 1777633656 | 10.56° C | 65% | 1009.9 hPa | 0 mm | - | 17 W/m² | - |
| 1777633354 | 10.56° C | 64% | 1009.9 hPa | 0 mm | - | 19 W/m² | - |
| 1777633051 | 10.56° C | 64% | 1010 hPa | 0 mm | - | 10 W/m² | - |
| 1777632747 | 10.56° C | 63% | 1009.7 hPa | 0 mm | - | 7 W/m² | - |
| 1777632443 | 10.56° C | 62% | 1009.7 hPa | 0 mm | - | 6 W/m² | - |
| 1777632141 | 10.56° C | 64% | 1009.6 hPa | 0 mm | - | 4 W/m² | - |
| 1777631838 | 10.56° C | 63% | 1009.7 hPa | 0 mm | - | 2 W/m² | - |
| 1777631537 | 10.56° C | 62% | 1009.6 hPa | 0 mm | - | 1 W/m² | - |
* Rain latest hour (hover to see other rain measurements)
** Current wind speed in m/s (hover to see current wind gust speed)